Terminal Aerodrome Forecast
Issued by NWS Wilmington, OH

Current Version | Previous Version | Graphics & Text | Print | Product List | Glossary On
Versions: 1 2 3 4 5 6 7 8 9 10 11 12 13 14 15
000
FTUS41 KILN 270800 AAA
TAFILN
TAF AMD
KILN 270810Z 2708/2806 22003KT P6SM BKN200
      TEMPO 2708/2712 5SM BR
     FM271300 33006KT P6SM SCT040 BKN100
     FM271500 35007KT P6SM VCTS BKN060CB
     FM272000 01005KT P6SM BKN090
     FM280000 04005KT P6SM SCT100 BKN250=

USA.gov is the U.S. government's official web portal to all federal, state and local government web resources and services.